Location: Newark
(49.4900°N, 20.6656°E)
Time: 07:03:31
(UTC+00:00)

STARLINK-1724 - Pass Details

Date: 24 September 2020
Orbit: 378 x 381 km, 53.0° (Epoch: 24 October)

Event Time Altitude Azimuth Distance (km) Brightness Sun altitude
Exits shadow 02:58:39 23° 306° (NW) 881 4.3 -15.0°
Maximum altitude 03:00:17 46° 9° (N) 528 3.7 -14.7°
Drops below altitude 10° 03:03:19 10° 84° (E) 1,401 7.1 -14.3°
Sets 03:05:25 0° 91° (E) 2,253 8.3 -13.9°
